Regional Weather Roundup
Issued by NWS Wakefield, VA

Home | Current Version | Previous Version | Graphics & Text | Print | Product List | Glossary On
Versions: 1 2 3 4 5 6 7 8 9 10 11 12 13 14 15 16 17 18 19 20 21 22 23 24 25 26 27 28 29 30 31 32 33 34 35 36 37 38 39 40 41 42 43 44 45 46 47 48 49 50
000
ASUS41 KAKQ 280715
RWRAKQ

REGIONAL WEATHER ROUNDUP
NATIONAL WEATHER SERVICE WAKEFIELD VA
300 AM EDT FRI AUG 28 2015

Note: "fair" indicates few or no clouds below 12,000 feet with no
significant weather and/or obstructions to visibility. * = Denotes
station may not report precipitation (e.g., rain,snow,etc.),
thunder or fog.

VAZ042-051-052>054-056-280800-
NORTHERN VIRGINIA

CITY           SKY/WX    TMP DP  RH WIND       PRES   REMARKS
WASH NATIONAL  MOCLDY    68  60  75 N3        30.16F
DULLES         MOCLDY    62  57  83 N3        30.16F
FORT BELVOIR   MOCLDY    61  59  93 CALM      30.15F
QUANTICO       MOCLDY    64  59  83 NW7       30.16F
FREDERICKSBRG* PTCLDY    64  61  91 CALM      30.14F
STAFFORD*      PTCLDY    58  56  94 CALM      30.19F
WARRENTON      CLOUDY    60  60 100 CALM      30.16S
CULPEPER*      CLOUDY    61  58  91 CALM      30.17S
MANASSAS*      MOCLDY    61  61 100 CALM      30.16S
LEESBURG*      CLOUDY    63  61  94 CALM      30.18S
WINCHESTER     CLEAR     57  54  88 CALM      30.17F
FRONT ROYAL*   PTSUNNY   57  55  94 CALM      30.17S
LURAY*         CLOUDY    59  57  94 CALM      30.18S
$$

VAZ048-049-060>072-079>083-280800-
CENTRAL AND SOUTH CENTRAL VIRGINIA

CITY           SKY/WX    TMP DP  RH WIND       PRES   REMARKS
RICHMOND       CLEAR     63  59  87 NW3       30.14F
CHESTERFIELD*  FAIR      59  46  63 CALM      30.15F
PETERSBURG*    CLEAR     58  58 100 CALM      30.14F
HANOVER        CLEAR     59  58  96 CALM      30.16F
TAPPAHANNOCK*  CLEAR     58  55  91 CALM      30.15S
QUINTON*       FAIR      59  58  97 CALM      30.13F
CHARLOTTSVILLE CLOUDY    64  59  83 CALM      30.16F
GORDONSVILLE*  CLOUDY    63  60  90 CALM      30.15F
ORANGE*        CLOUDY    64  59  82 CALM      30.17S
LOUISA*        MOCLDY    61  57  88 CALM      30.15F
BUMPASS*       FAIR      60  58  93 MISG      30.15F
FARMVILLE*     CLEAR     62  62 100 CALM      30.14F
CREWE*         FAIR     N/A N/A N/A CALM      30.14F
FORT PICKETT*  FAIR      60  59  97 CALM      30.14F
CHASE CITY*    FAIR      64  63  99 CALM      30.14S
CLARKSVILLE*   FAIR      61  61 100 CALM      30.13F
SOUTH HILL*    CLEAR     59  58  97 N3        30.20S
LAWRENCEVILLE* FAIR      61  61 100 CALM      30.13F
EMPORIA*       CLEAR     59  59 100 CALM      30.14F FOG
$$

VAZ088>098-280800-
SOUTHEAST VIRGINIA

CITY           SKY/WX    TMP DP  RH WIND       PRES   REMARKS
NORFOLK        MOCLDY    75  58  55 NE8       30.11F
VIRGINIA BEACH CLOUDY    73  61  65 N3        30.10F
NORFOLK NAVAL  MOCLDY    74  58  57 NE7       30.13F
WEST POINT*    CLEAR     60  58  91 CALM      30.15F
SALUDA*        FAIR      66  61  84 NW5       30.12F
NEWPORT NEWS   PTCLDY    63  60  90 E3        30.12F
LANGLEY AFB    PTCLDY    65  60  85 W1        30.11F
FORT EUSTIS    PTCLDY    66  66 100 CALM      30.10F
WILLIAMSBURG*  CLEAR     66  64  94 CALM      30.14S
HR EXEC AP*      N/A     61  57  88 CALM      30.14S
FRANKLIN*      PTCLDY    61  60  96 CALM      30.13F
WAKEFIELD      PTCLDY    60  57  89 CALM      30.13F FOG
$$

VAZ020-022-025-037-045-280800-
WEST CENTRAL AND SOUTHWEST VIRGINIA

CITY           SKY/WX    TMP DP  RH WIND       PRES   REMARKS
STAUNTON*      CLEAR     61  56  83 CALM      30.20F
WAYNESBORO*    FAIR      61  56  82 CALM      30.19S
HOT SPRINGS VA PTCLDY    57  53  85 E6        30.24S
LYNCHBURG      CLEAR     60  59  96 CALM      30.18S
DANVILLE       CLEAR     61  59  93 CALM      30.14F FOG
SOUTH BOSTON*  FAIR      58  57  96 CALM      30.14S
MARTINSVILLE   CLEAR     59  59 100 CALM      30.18F
ROANOKE        CLEAR     62  59  90 CALM      30.18F
BLACKSBURG     MOCLDY    60  59  96 CALM      30.22F
DUBLIN*        CLOUDY    65  63  92 CALM      30.20F
MARION*        CLEAR     60  57  89 CALM      30.22F
HILLSVILLE*    PTCLDY    62  58  87 SE3       30.20F
RICHLANDS*     FAIR      62  30  30 SE3       30.18F
WISE*          CLEAR     61  55  82 CALM      30.18F
ABINGDON*      CLEAR     62  57  82 CALM      30.16F
$$

MDZ021>025-VAZ099-100-280800-
SOUTHERN MARYLAND AND THE DELMARVA PENINSULA

CITY           SKY/WX    TMP DP  RH WIND       PRES   REMARKS
PATUXENT RIVER CLEAR     60  58  92 CALM      30.14F
BAY BRIDGE APT   N/A     64  57  77 CALM      30.14F
LEONARDTOWN    CLEAR     59  57  94 CALM      30.15F
DOVER          CLEAR     63  60  90 NW5       30.12F
GEORGETOWN     CLEAR     60  56  86 CALM      30.14F
EASTON         NOT AVBL
CAMBRIDGE      CLEAR     59  55  88 CALM      30.13F
SALISBURY      CLEAR     59  58  96 CALM      30.13F
OCEAN CITY     CLEAR     61  58  90 NW6       30.13S
WALLOPS ISLAND CLEAR     63  62  97 N3        30.13F
ACCOMACK*      PTCLDY    55  55 100 NE5       30.12F
$$

NCZ012>017-030>032-280800-
NORTH CENTRAL AND EASTERN NORTH CAROLINA

CITY           SKY/WX    TMP DP  RH WIND       PRES   REMARKS
ROANOKE RAPIDS FAIR      61  59  94 CALM      30.12F
RALEIGH        PTCLDY    63  60  90 CALM      30.12F
ELIZABETH CITY CLOUDY    72  65  78 NE6       30.10F
AHOSKIE*       CLOUDY    64  62  93 CALM      30.12S
EDENTON*       CLOUDY    67  63  85 CALM      30.10F
CURRITUCK*     CLOUDY    75  60  60 NE3       30.11F
KILL DEVIL HLS CLOUDY    75  61  60 E7        30.09S
MANTEO         CLOUDY    74  62  65 NE12      30.10S
CAPE HATTERAS  CLOUDY    73  68  84 NE8G17    30.07F
TARBORO*       FAIR      61  60  96 CALM      30.12F FOG
GOLDSBORO      MOCLDY    66  64  92 E2        30.09F
WASHINGTON     CLOUDY    68  64  86 CALM      30.10S
GREENVILLE     MOCLDY    64  64 100 CALM      30.12S
NEW BERN       CLOUDY    70  64  81 NE6       30.09F
WILMINGTON     MOCLDY    69  65  86 NE8       30.06F
$$

VAZ048-280800-
ELSEWHERE

CITY           SKY/WX    TMP DP  RH WIND       PRES   REMARKS
HARRISBURG PA  PTCLDY    60  57  89 CALM      30.15F
BALTIMORE      PTCLDY    58  56  93 CALM      30.15F
ANNAPOLIS      PTCLDY    69  62  78 N3        30.14F
ANDREWS AFB    CLOUDY    61  57  85 N2        30.14F
PHILADELPHIA   CLEAR     66  54  65 NW6       30.15S
HENDERSON NC   CLEAR     61  58  90 CALM      30.14S
GREENSBORO     CLEAR     65  60  84 CALM      30.13F
ROCKY MOUNT    PTCLDY    63  61  93 CALM      30.12F
$$

VAZ100-280800-
MARINE

STATION/POSITION TIME  TEMP    WIND        PRES    WAVE   SWELL
                       AIR SEA DIR/SP/G            HT/PER HT/PER
                 (UTC) (F)     (DEG/KT/KT) (MB)    (FT/S) (FT/S)
BRANDYWINE LGT   0600   72 75   30/  9/ 11 1020.6F
CAPE MAY NJ      0600   68 79   40/  2/  4 1020.1F
LEWES DE         0600   74 76   30/  8/ 10 1020.3F
15NM E FENWICK I 0650   74 78  360/ 10/ 10 1020.0F   3/ 9   2/ 9
OCEAN-CITY-INLET 0600   69 77  340/  4/  5 1019.5F
WACHAPREAGUE VA  0600   67 78  320/  2/  4 1020.2F
GOOSES REEF MD   0700   75 79   50/  8/ 10 1021.5F
COVE POINT MD    0600   72      50/  9/ 10 1021.5F
SOLOMONS ISLAND  0600      81                N/A
BISHOPS HEAD MD  0600   71 78   20/  4/  8 1019.7F
PINEY POINT MD   0600           40/  3/  4   N/A
POTOMAC MD       0700   75 79   50/  8/ 10 1019.3F   0
CAMBRIDGE MD     0600   71 80   20/  6/  8 1019.9F
LEWISETTA VA     0600   75 79   60/  5/  8 1020.1F
RAPPAHANNOCK LGT 0600           40/ 10/ 11 1020.7F
STINGRAY PT      0700   76 80   60/ 10/ 12 1020.3F   1/ 2
YORK RVR RNG VA  0600   75      10/  7/  9 1019.6F
YORKTOWN VA      0600   72 80  360/  6/  7 1019.9F
JAMESTOWN VA     0700   69 81   10/  6/  6   N/A
DOMINION TERM VA 0600   73      30/  4/  5 1020.0F
KIPTOPEKE VA     0600      79   40/  4/  5   N/A
CHES BAY BRIDGE  0600   76 79   20/ 10/ 12 1019.5F
CAPE HENRY VA    0600   76      30/ 11/ 13   N/A
CHESAPEAKE LGHT  0600   76      30/  9/ 10 1020.4F
WILLOUBY STN VA  0600   76      40/  9/ 11 1020.9F
CAPE HENRY BUOY  0628      79                N/A     3/10   2/12
1ST LANDING BUOY 0700      78              1019.4F   2/ 3
CAPE CHARLES BUO 0626      79                N/A     3/10   2/10
OFFSHORE WE BUOY 0611      78                N/A     3/ 9   3/ 9
64NM E OF VA BCH 0650   77 79   30/ 12/ 16 1019.0F   3/ 9   3/ 9
DUCK PIER NC     0600   76 78   40/ 15/ 18 1018.5F
44100 DUCK FRF   0624      78                N/A     4/10   2/11
44056 DUCK FRF   0611      78                N/A     4/12   2/12
OREGON INLET NC  0600   75 77   20/ 13/ 18 1018.8S
HATTERAS NC      0600   76 80   40/ 10/ 15 1018.2R
DIAMOND SHLS NC  0650   74 83  180/  2/  6 1018.3S   4/ 7   3/ 7



USA.gov is the U.S. government's official web portal to all federal, state and local government web resources and services.